Mountain Home, ID

9:27 AM MST on December 14, 2017 (GMT -0700)
Mountain Home Air Force Base

Weather History for KMUO - September, 2013

Change the Weather History Date:

Saturday, September 21, 2013

  Actual Average Record
Temperature  
Mean Temperature 65 °F 61 °F  
Max Temperature 78 °F 78 °F 95 °F (1936)
Min Temperature 52 °F 44 °F 25 °F (1926)
Degree Days  
Heating Degree Days 0 5  
Month to date heating degree days 20 60  
Cooling Degree Days 0 2  
Month to date cooling degree days 130 78  
Growing Degree Days 14 (Base 50)    
Moisture  
Dew Point 34 °F    
Average Humidity 35    
Maximum Humidity 57    
Minimum Humidity 15    
Precipitation  
Precipitation 0.00 in 0.02 in 0.47 in (1984)
Month to date precipitation 0.03 0.33  
Sea Level Pressure  
Sea Level Pressure 29.63 in    
Wind  
Wind Speed 12 mph (NNE)    
Max Wind Speed 41 mph    
Max Gust Speed 47 mph    
Visibility 9 miles    
Events      
T = Trace of Precipitation, MM = Missing Value Source: NWS Daily Summary

Daily Weather History Graph

Daily Weather History Graph

Search for Another Location

Airport or City:

Trip Planner

Search our weather history database for the weather conditions in past years. The results will help you decide how hot, cold, wet, or windy it might be!

Date:

Astronomy

Sep. 21, 2013 Rise Set
Actual Time 7:30 AM MDT 7:42 PM MDT
Civil Twilight 7:01 AM MDT 8:10 PM MDT
Nautical Twilight 6:28 AM MDT 8:43 PM MDT
Astronomical Twilight 5:54 AM MDT 9:17 PM MDT
Moon 8:50 PM MDT (9/21) 9:57 AM MDT (9/21)
Length of Visible Light 13h 08m
Length of Day
12h 11m
Waning Gibbous, 94% of the Moon is Illuminated
Sep 21
Waning Gibbous
Sep 26
Last Quarter
Oct 4
New
Oct 11
First Quarter
Oct 18
Full

Hourly Weather History & Observations

Time (MDT) Temp. Dew Point Humidity Pressure Visibility Wind Dir Wind Speed Gust Speed Precip Events Conditions
12:58 AM 66.0 °F 31.5 °F 28% 29.58 in 10.0 mi ESE 17.3 mph - N/A   Scattered Clouds
1:58 AM 63.5 °F 31.3 °F 30% 29.62 in 10.0 mi SE 6.9 mph - N/A   Clear
2:58 AM 58.8 °F 31.5 °F 36% 29.64 in 10.0 mi East 1.2 mph - N/A   Mostly Cloudy
3:58 AM 56.7 °F 32.9 °F 41% 29.65 in 10.0 mi East 5.8 mph - N/A   Overcast
4:58 AM 54.9 °F 32.7 °F 43% 29.66 in 10.0 mi East 2.3 mph - N/A   Mostly Cloudy
5:58 AM 57.9 °F 32.9 °F 39% 29.66 in 10.0 mi ESE 5.8 mph - N/A   Partly Cloudy
6:58 AM 54.3 °F 32.7 °F 44% 29.67 in 10.0 mi ESE 5.8 mph - N/A   Clear
7:58 AM 52.2 °F 32.7 °F 48% 29.70 in 10.0 mi East 4.6 mph - N/A   Clear
8:58 AM 59.4 °F 34.7 °F 40% 29.70 in 10.0 mi ESE 8.1 mph - N/A   Scattered Clouds
9:58 AM 65.5 °F 33.3 °F 30% 29.69 in 10.0 mi East 6.9 mph - N/A   Partly Cloudy
10:58 AM 70.7 °F 27.0 °F 20% 29.68 in 10.0 mi ENE 2.3 mph - N/A   Clear
11:58 AM 74.5 °F 27.5 °F 18% 29.67 in 10.0 mi Variable 3.5 mph - N/A   Mostly Cloudy
12:58 PM 75.7 °F 27.0 °F 16% 29.64 in 10.0 mi NW 6.9 mph - N/A   Scattered Clouds
1:58 PM 76.8 °F 26.2 °F 15% 29.61 in 10.0 mi Variable 4.6 mph - N/A   Clear
2:58 PM 76.3 °F 26.4 °F 16% 29.59 in 10.0 mi Variable 3.5 mph - N/A   Partly Cloudy
3:58 PM 77.4 °F 26.8 °F 15% 29.57 in 10.0 mi NW 15.0 mph - N/A   Partly Cloudy
4:58 PM 75.2 °F 34.3 °F 23% 29.55 in 10.0 mi NW 23.0 mph - N/A   Partly Cloudy
5:58 PM 71.4 °F 36.1 °F 28% 29.56 in 10.0 mi NNW 25.3 mph - N/A   Clear
6:58 PM 65.3 °F 42.3 °F 43% 29.60 in 2.0 mi NW 41.4 mph 47.2 mph N/A   Haze
7:03 PM 62.6 °F 42.8 °F 48% 29.63 in 4.0 mi NW 39.1 mph 47.2 mph N/A   Haze
7:58 PM 60.1 °F 39.9 °F 47% 29.63 in 10.0 mi NW 27.6 mph 34.5 mph N/A   Clear
8:58 PM 58.1 °F 40.3 °F 52% 29.62 in 10.0 mi NW 29.9 mph 36.8 mph N/A   Partly Cloudy
9:58 PM 56.8 °F 39.7 °F 53% 29.62 in 10.0 mi WNW 19.6 mph - N/A   Scattered Clouds
10:58 PM 55.9 °F 39.2 °F 53% 29.62 in 10.0 mi WNW 20.7 mph - N/A   Clear
11:58 PM 54.7 °F 39.6 °F 57% 29.63 in 10.0 mi NW 17.3 mph - N/A   Partly Cloudy